Waarnemingen

Advertentie
Mijn weer
Reims-Prunay, Frankrijk (7072): temperatuur & dauwpunt: 12.12.2017 15:00:00 - 18.12.2017 15:00:00 (CET)Reims-Prunay, Frankrijk (7072): temperatuur 5cm: 12.12.2017 15:00:00 - 18.12.2017 15:00:00 (CET)Reims-Prunay, Frankrijk (7072): temperatuur -20cm & temperatuur -100cm: 12.12.2017 15:00:00 - 18.12.2017 15:00:00 (CET)Reims-Prunay, Frankrijk (7072): windsnelheid & windstoten: 12.12.2017 15:00:00 - 18.12.2017 15:00:00 (CET)Reims-Prunay, Frankrijk (7072): windrichting: 12.12.2017 15:00:00 - 18.12.2017 15:00:00 (CET)Reims-Prunay, Frankrijk (7072): luchtdruk: 12.12.2017 15:00:00 - 18.12.2017 15:00:00 (CET)Reims-Prunay, Frankrijk (7072): zicht: 12.12.2017 15:00:00 - 18.12.2017 15:00:00 (CET)Reims-Prunay, Frankrijk (7072): Zonneschijnduur: 12.12.2017 15:00:00 - 18.12.2017 15:00:00 (CET)Reims-Prunay, Frankrijk (7072): neerslag: 12.12.2017 15:00:00 - 18.12.2017 15:00:00 (CET)
Datum & Tijd tt [°C] td [°C] tt 5cm [°C] tt -20cm [°C] tt -100cm [°C] ff [km/u] ff [kn] fx [km/u] fx [kn] dd ppp [hPa] vv [km] sd [min] rr [mm]
18.12.2017 15:00:00 6,9 4,4 6,8 5,3 8,6 16 8 32 17 N 1026,0 20 0 0,0
18.12.2017 14:00:00 6,9 4,7 6,7 5,2 8,6 16 9 32 17 NNW 1025,4 10 0 0,0
18.12.2017 13:00:00 6,3 4,5 6,4 5,2 8,6 21 11 34 18 NNW 1025,0 10 0 0,0
18.12.2017 12:00:00 5,9 4,2 5,7 5,1 8,7 19 10 38 21 NNW 1024,6 15 0 0,0
18.12.2017 11:00:00 5,7 4,2 4,9 5,1 8,7 22 12 36 20 NNW 1024,2 10 6 0,0
18.12.2017 10:00:00 5,4 4,0 4,0 5,1 8,7 16 8 28 15 NNW 1023,4 16 10 0,0
18.12.2017 09:00:00 5,3 3,1 3,9 5,0 8,7 22 12 32 17 NNW 1022,3 10 0 0,0
18.12.2017 08:00:00 6,1 5,1 5,5 5,0 8,7 16 9 25 14 NNW 1021,1 10 0 0,0
18.12.2017 07:00:00 6,4 5,8 5,6 5,0 8,7 13 7 21 12 NW 1020,0 10 0 0,0
18.12.2017 06:00:00 6,3 5,6 5,6 4,9 8,7 9 5 22 12 NW 1019,6 10 0 0,4
18.12.2017 05:00:00 6,0 5,3 5,1 4,9 8,7 9 5 23 12 WNW 1019,3 6 0 0,0
18.12.2017 04:00:00 5,5 4,8 3,7 4,9 8,7 11 6 18 10 W 1019,9 10 0 0,2
18.12.2017 03:00:00 4,1 3,2 3,0 4,9 8,7 5 3 24 13 - 1020,5 10 0 0,0
18.12.2017 02:00:00 3,4 2,4 2,8 4,9 8,7 13 7 35 19 ZW 1021,3 6 0 1,4
18.12.2017 01:00:00 3,3 2,1 2,2 4,9 8,7 15 8 29 16 ZZW 1022,8 10 0 0,8
18.12.2017 00:00:00 2,6 1,6 1,8 4,9 8,7 15 8 24 13 ZZW 1024,6 9 0 0,2
17.12.2017 23:00:00 2,5 1,2 1,6 4,9 8,7 11 6 25 14 ZZW 1025,7 10 0 0,0
17.12.2017 22:00:00 2,3 0,7 1,3 4,9 8,7 16 9 31 17 ZZW 1026,5 10 0 0,0
17.12.2017 21:00:00 1,7 -0,1 0,2 5,0 8,7 8 4 16 8 ZO 1027,2 10 0 0,0
17.12.2017 20:00:00 1,2 -0,4 -1,3 5,0 8,7 4 2 10 5 - 1027,8 10 0 0,0
17.12.2017 19:00:00 1,6 0,0 -0,4 5,0 8,7 8 4 13 7 ZZW 1027,7 10 0 0,0
17.12.2017 18:00:00 1,2 0,0 0,0 5,0 8,7 8 4 13 7 Z 1028,1 10 0 0,0
17.12.2017 17:00:00 1,5 -0,3 0,1 4,9 8,7 5 3 11 6 Z 1027,8 10 0 0,0
17.12.2017 16:00:00 2,8 0,7 2,9 4,9 8,7 8 4 16 9 ZZW 1027,8 10 0 0,0
17.12.2017 15:00:00 2,8 0,7 3,1 4,8 8,7 5 3 11 6 - 1027,4 10 0 0,0
17.12.2017 14:00:00 2,5 1,0 2,6 4,8 8,7 8 4 13 7 WZW 1026,9 10 0 0,0
17.12.2017 13:00:00 1,8 0,9 1,8 4,8 8,7 9 5 16 9 W 1027,2 10 0 0,0
17.12.2017 12:00:00 1,2 0,9 1,3 4,8 8,7 8 4 16 8 WNW 1027,3 4,5 0 0,0
17.12.2017 11:00:00 0,6 0,3 1,3 4,8 8,7 8 4 11 6 W 1027,4 0,8 0 0,0
17.12.2017 10:00:00 0,9 0,6 0,9 4,9 8,7 3 2 8 4 NNW 1026,7 0,5 0 0,0
17.12.2017 09:00:00 0,9 0,6 0,5 4,9 8,7 5 3 8 4 - 1026,1 3,5 0 0,0
17.12.2017 08:00:00 0,8 0,4 0,6 4,9 8,7 2 1 9 5 - 1025,2 0,7 0 0,0
17.12.2017 07:00:00 1,3 0,9 -2,1 5,0 8,8 5 3 10 5 - 1024,3 5 0 0,0
17.12.2017 06:00:00 -0,1 -0,7 -2,7 5,1 8,7 0 0 4 2 N 1024,0 8 0 0,0
17.12.2017 05:00:00 0,4 -0,2 -1,3 5,1 8,7 0 0 8 4 N 1023,5 10 0 0,0
17.12.2017 04:00:00 0,0 -0,9 -1,5 5,2 8,7 2 1 4 2 N 1023,2 16 0 0,0
17.12.2017 03:00:00 0,2 -0,8 -1,3 5,3 8,8 0 0 4 2 N 1023,1 19 0 0,0
17.12.2017 02:00:00 0,0 -0,9 -1,6 5,4 8,8 0 0 11 6 N 1022,7 10 0 0,0
17.12.2017 01:00:00 -0,4 -1,0 -6,0 5,5 8,8 4 2 8 4 W 1022,5 20 0 0,0
17.12.2017 00:00:00 -1,2 -1,6 -5,2 5,6 8,8 4 2 7 4 NNO 1022,3 10 0 0,0
16.12.2017 23:00:00 -1,2 -1,8 -6,9 5,6 8,8 2 1 4 2 N 1022,3 15 0 0,0
16.12.2017 22:00:00 -1,2 -1,9 -6,3 5,7 8,8 0 0 9 5 N 1021,8 10 0 0,0
16.12.2017 21:00:00 -0,5 -1,6 -3,6 5,8 8,8 3 1 9 5 NW 1021,6 16 0 0,0
16.12.2017 20:00:00 0,7 -0,9 -2,3 5,8 8,8 0 0 10 6 N 1021,0 10 0 0,0
16.12.2017 19:00:00 1,8 -0,1 -0,7 5,8 8,8 7 4 16 8 W 1020,4 20 0 0,0
16.12.2017 18:00:00 3,3 0,2 2,0 5,8 8,8 10 6 27 14 NW 1019,9 20 0 0,0
16.12.2017 17:00:00 4,1 0,8 3,5 5,8 8,8 15 8 30 16 WNW 1019,0 20 0 0,0
16.12.2017 16:00:00 4,4 1,2 4,2 5,8 8,8 13 7 27 14 WNW 1018,1 10 0 0,0
16.12.2017 15:00:00 4,6 1,4 4,6 5,7 8,8 16 9 27 14 NW 1017,2 20 0 0,0
16.12.2017 14:00:00 4,8 1,6 4,0 5,7 8,8 16 9 32 17 NW 1016,8 10 0 0,0
16.12.2017 13:00:00 4,8 2,3 4,3 5,7 8,8 18 10 36 19 NNW 1016,2 10 4 0,0
16.12.2017 12:00:00 4,4 2,6 3,7 5,7 8,8 18 10 38 20 NNW 1015,9 10 2 0,2
16.12.2017 11:00:00 4,5 2,7 3,9 5,7 8,8 23 12 36 19 NNW 1015,2 20 11 0,0
16.12.2017 10:00:00 3,8 2,3 3,1 5,7 8,8 17 9 32 18 NNW 1014,2 20 4 0,0
16.12.2017 09:00:00 3,7 2,2 3,4 5,7 8,8 18 10 31 17 NNW 1012,8 20 0 0,0
16.12.2017 08:00:00 4,0 2,8 3,4 5,7 8,8 16 8 24 13 NNW 1011,6 20 0 0,0
16.12.2017 07:00:00 3,7 2,7 2,9 5,7 8,8 11 6 29 16 NNW 1010,7 8 0 0,0
16.12.2017 06:00:00 3,2 2,2 2,3 5,7 8,8 9 5 27 14 NW 1009,6 5 0 0,0
16.12.2017 05:00:00 3,0 1,7 2,3 5,7 8,8 15 8 29 16 NW 1008,9 6 0 0,0
16.12.2017 04:00:00 3,8 2,8 3,3 5,7 8,8 16 9 26 14 NNW 1007,7 5 0 0,0
16.12.2017 03:00:00 3,7 2,8 3,2 5,8 8,8 13 7 26 14 NW 1007,0 5 0 0,0
16.12.2017 02:00:00 3,6 2,7 3,2 5,8 8,8 15 8 26 14 NNW 1005,8 7 0 0,0
16.12.2017 01:00:00 3,6 2,6 3,1 5,8 8,8 18 10 25 14 NNW 1004,8 10 0 0,0
16.12.2017 00:00:00 3,7 2,5 3,1 5,8 8,8 15 8 24 13 NW 1003,9 10 0 0,0
15.12.2017 23:00:00 3,8 2,5 2,9 5,8 8,8 15 8 22 12 NW 1002,8 10 0 0,0
15.12.2017 22:00:00 3,9 2,9 3,2 5,8 8,8 16 8 24 13 NNW 1001,8 16 0 0,0
15.12.2017 21:00:00 4,0 3,0 3,4 5,8 8,8 11 6 20 11 NW 1001,0 15 0 0,2
15.12.2017 20:00:00 3,9 2,9 3,3 5,8 8,8 15 8 23 13 NW 1000,0 9 0 0,0
15.12.2017 19:00:00 3,7 2,7 3,3 5,8 8,8 11 6 16 9 NW 999,1 20 0 0,0
15.12.2017 18:00:00 3,8 2,8 3,3 5,8 8,8 8 4 20 11 NW 998,2 10 0 1,6
15.12.2017 17:00:00 4,3 2,6 3,6 5,8 8,8 11 6 20 11 NW 997,2 10 0 1,0
15.12.2017 16:00:00 5,1 3,4 4,3 5,8 8,8 13 7 24 13 ZW 996,8 19 0 0,0
15.12.2017 15:00:00 4,9 3,2 4,3 5,7 8,9 13 7 29 16 ZW 996,5 20 0 0,0
15.12.2017 14:00:00 4,5 2,8 4,0 5,7 8,9 15 8 27 15 ZW 996,6 10 0 0,4
15.12.2017 13:00:00 4,7 3,2 4,0 5,7 8,8 16 9 29 16 ZW 997,0 10 0 0,4
15.12.2017 12:00:00 5,0 2,9 5,3 5,7 8,9 15 8 29 16 ZW 997,2 10 0 0,0
15.12.2017 11:00:00 5,3 3,0 5,2 5,7 8,8 13 7 22 12 WZW 997,3 10 34 0,0
15.12.2017 10:00:00 4,8 2,8 - 5,7 8,9 8 5 - - WZW 996,9 20 - -
15.12.2017 09:00:00 3,6 1,8 1,8 5,7 8,9 8 4 25 14 WNW 996,1 10 0 0,0
15.12.2017 08:00:00 4,0 2,5 2,9 5,7 8,9 16 9 39 21 W 995,4 10 0 0,0
15.12.2017 07:00:00 4,2 2,5 3,4 5,7 8,9 22 12 37 20 W 994,8 10 0 0,6
15.12.2017 06:00:00 4,5 2,8 2,9 5,8 8,9 18 10 35 19 WZW 994,0 20 0 0,0
15.12.2017 05:00:00 3,5 2,2 2,9 5,8 8,9 21 11 36 19 ZZW 994,1 6 0 0,0
15.12.2017 04:00:00 4,0 1,7 3,2 5,8 8,9 16 9 32 17 ZZW 994,8 10 0 0,0
15.12.2017 03:00:00 3,9 1,6 2,3 5,9 8,9 18 10 32 17 ZW 994,7 10 0 0,0
15.12.2017 02:00:00 3,5 1,0 2,3 5,9 8,9 11 6 31 17 WZW 995,0 10 0 0,0
15.12.2017 01:00:00 4,0 1,5 2,2 5,9 8,9 15 8 40 22 W 994,8 10 0 0,0
15.12.2017 00:00:00 4,6 1,6 3,1 5,9 8,9 24 13 41 22 W 994,3 10 0 0,0
14.12.2017 23:00:00 4,9 1,7 3,3 5,9 8,9 22 12 40 21 W 993,6 10 0 0,0
14.12.2017 22:00:00 4,6 2,3 3,3 5,9 8,9 16 9 43 23 W 993,5 20 0 0,4
14.12.2017 21:00:00 5,7 2,3 5,1 5,9 8,9 22 12 42 23 W 993,6 10 0 0,0
14.12.2017 20:00:00 5,7 3,4 3,9 5,9 8,9 8 4 21 11 WZW 993,5 10 0 0,0
14.12.2017 19:00:00 5,3 3,1 3,8 5,9 8,9 15 8 26 14 ZZW 994,0 10 0 0,0
14.12.2017 18:00:00 5,4 2,6 - 5,9 8,9 11 6 39 21 ZW 994,6 10 0 -
14.12.2017 17:00:00 - - - - - - - - - - - - - -
14.12.2017 16:00:00 - - - - - - - - - - - - - -
14.12.2017 15:00:00 6,4 3,0 6,1 5,8 8,9 22 12 45 25 WZW 997,7 20 16 0,0
14.12.2017 14:00:00 6,2 2,3 6,1 5,8 8,9 28 15 54 29 WZW 997,9 10 0 0,0
14.12.2017 13:00:00 6,5 2,2 6,3 5,8 8,9 30 16 56 31 WZW 999,3 20 0 0,0
14.12.2017 12:00:00 6,5 2,2 5,9 5,8 9,0 32 17 58 31 WZW 1000,0 20 2 0,0
14.12.2017 11:00:00 6,0 1,9 5,5 5,8 8,9 34 18 56 30 WZW 1000,9 10 13 0,0
14.12.2017 10:00:00 5,7 2,0 4,3 5,9 8,9 34 18 56 30 WZW 1001,0 20 15 0,0
14.12.2017 09:00:00 4,8 1,5 3,6 5,9 8,9 29 16 54 29 WZW 1001,2 10 0 0,0
14.12.2017 08:00:00 4,7 1,5 3,3 5,9 9,0 29 16 48 26 WZW 1001,2 10 0 0,0
14.12.2017 07:00:00 4,9 0,7 3,8 6,0 9,0 26 14 56 30 WZW 1001,2 10 0 0,0
14.12.2017 06:00:00 5,4 0,9 3,8 6,0 9,0 31 17 48 26 WZW 1001,0 10 0 0,0
14.12.2017 05:00:00 5,4 1,3 4,1 6,0 9,0 26 14 54 29 W 1000,3 10 0 0,0
14.12.2017 04:00:00 5,7 1,6 3,4 6,0 9,0 32 18 51 28 W 999,8 20 0 0,0
14.12.2017 03:00:00 5,3 1,8 3,8 6,0 9,0 31 17 72 39 W 998,8 10 0 0,0
14.12.2017 02:00:00 6,8 3,2 5,1 5,9 9,0 46 25 74 40 W 996,5 10 0 1,0
14.12.2017 01:00:00 7,7 4,5 5,8 5,9 9,0 28 15 44 24 WZW 996,2 10 0 0,0
14.12.2017 00:00:00 7,3 4,0 - 5,8 9,0 21 11 - - W - 10 - 0,0
13.12.2017 23:00:00 8,0 4,0 - - - 22 12 - - W - 20 - 0,0
13.12.2017 22:00:00 9,0 6,0 - - - 31 17 - - W - 10 - 0,6
13.12.2017 21:00:00 9,0 7,0 - - - 29 16 - - ZW - 10 - 1,2
13.12.2017 20:00:00 8,0 7,0 - - - 29 16 - - ZZW - 9 - 0,8
13.12.2017 19:00:00 8,0 7,0 - - - 22 12 - - ZZW - 11 - 0,8
13.12.2017 18:00:00 8,0 7,0 - - - 24 13 - - ZW - 10 - 0,2
13.12.2017 17:00:00 - - - - - 17 9 - - ZZW - - - 0,2
13.12.2017 16:00:00 - - - - - 17 9 - - ZW - - - 0,2
13.12.2017 15:00:00 - - - - - 21 11 - - WZW - - - 0,0
13.12.2017 14:00:00 - - - - - 18 10 - - ZW - - - 0,4
13.12.2017 13:00:00 - - - - - 19 11 - - ZZW - - - 0,0
13.12.2017 12:00:00 - - - - - 24 13 - - ZZW - - - 0,4
13.12.2017 11:00:00 - - - - - 30 16 - - ZZW - - - 2,4
13.12.2017 10:00:00 - - - - - 26 14 - - ZZW - - - 2,8
13.12.2017 09:00:00 - - - - - - - - - - - - - -
13.12.2017 08:00:00 - - - - - - - - - - - - - -
13.12.2017 07:00:00 - - - - - - - - - - - - - -
13.12.2017 06:00:00 - - - - - - - - - - - - - -
13.12.2017 05:00:00 - - - - - - - - - - - - - -
13.12.2017 04:00:00 - - - - - - - - - - - - - -
13.12.2017 03:00:00 - - - - - - - - - - - - - -
13.12.2017 02:00:00 - - - - - - - - - - - - - -
13.12.2017 01:00:00 - - - - - - - - - - - - - -
13.12.2017 00:00:00 - - - - - - - - - - - - - -
12.12.2017 23:00:00 - - - - - - - - - - - - - -
12.12.2017 22:00:00 - - - - - - - - - - - - - -
12.12.2017 21:00:00 - - - - - - - - - - - - - -
12.12.2017 20:00:00 - - - - - - - - - - - - - -
12.12.2017 19:00:00 - - - - - - - - - - - - - -
12.12.2017 18:00:00 - - - - - - - - - - - - - -
12.12.2017 17:00:00 4,0 0,7 2,4 5,9 9,1 7 4 14 7 ZW 1014,6 20 15 0,0
12.12.2017 16:00:00 5,1 0,7 4,8 5,8 9,1 9 5 17 9 W 1013,7 10 47 0,0
12.12.2017 15:00:00 5,6 0,9 5,0 5,8 9,1 11 6 26 14 W 1012,7 20 24 0,0

tt = temperatuur
td = dauwpunt
tt 5cm = temperatuur 5cm
tt -20cm = temperatuur -20cm
tt -100cm = temperatuur -100cm
ff = windsnelheid
fx = windstoten
dd = windrichting
ppp = luchtdruk
vv = zicht
sd = Zonneschijnduur
rr = neerslag

Weerstations in de omgeving